date,time,SUV Intensity [MED/Hr],UV Index,Daily total [MED],Since Last [MED]
24/06/2023,23:58:12,-0.000,0.0,13.486,13.486
24/06/2023,23:59:11,-0.000,0.0,13.486,0.0
25/06/2023,00:00:11,-0.000,0.0,0.0,-13.486
25/06/2023,00:01:11,0.000,0.0,0.0,0.0
25/06/2023,00:02:11,0.000,0.0,0.0,0.0
25/06/2023,00:03:11,0.001,0.0,0.0,0.0
25/06/2023,00:04:11,-0.001,0.0,0.0,0.0
25/06/2023,00:05:11,0.000,0.0,0.0,0.0
25/06/2023,00:06:11,-0.001,0.0,0.0,0.0
25/06/2023,00:07:11,0.000,0.0,0.0,0.0
25/06/2023,00:08:11,0.000,0.0,0.0,0.0
25/06/2023,00:09:11,-0.001,0.0,0.0,0.0
25/06/2023,00:10:11,0.000,0.0,0.0,0.0
25/06/2023,00:11:11,-0.000,0.0,0.0,0.0
25/06/2023,00:12:11,0.000,0.0,0.0,0.0
25/06/2023,00:13:12,0.000,0.0,0.0,0.0
25/06/2023,00:14:11,0.000,0.0,0.0,0.0
25/06/2023,00:15:11,-0.000,0.0,0.0,0.0
25/06/2023,00:16:10,-0.000,0.0,0.0,0.0
25/06/2023,00:17:11,0.000,0.0,0.0,0.0
25/06/2023,00:18:12,0.000,0.0,0.0,0.0
25/06/2023,00:19:12,0.000,0.0,0.0,0.0
25/06/2023,00:20:11,0.000,0.0,0.0,0.0
25/06/2023,00:21:11,0.001,0.0,0.0,0.0
25/06/2023,00:22:11,0.001,0.0,0.0,0.0
25/06/2023,00:23:12,0.000,0.0,0.0,0.0
25/06/2023,00:24:11,0.000,0.0,0.0,0.0
25/06/2023,00:25:11,0.000,0.0,0.0,0.0
25/06/2023,00:26:12,-0.000,0.0,0.0,0.0
25/06/2023,00:27:12,0.000,0.0,0.0,0.0
25/06/2023,00:28:11,0.000,0.0,0.0,0.0
25/06/2023,00:29:11,-0.001,0.0,0.0,0.0
25/06/2023,00:30:11,-0.001,0.0,0.0,0.0
25/06/2023,00:31:12,0.000,0.0,0.0,0.0
25/06/2023,00:32:11,0.000,0.0,0.0,0.0
25/06/2023,00:33:11,0.000,0.0,0.0,0.0
25/06/2023,00:34:11,0.000,0.0,0.0,0.0
25/06/2023,00:35:12,0.000,0.0,0.0,0.0
25/06/2023,00:36:11,-0.000,0.0,0.0,0.0
25/06/2023,00:37:12,-0.001,0.0,0.0,0.0
25/06/2023,00:38:11,0.000,0.0,0.0,0.0
25/06/2023,00:39:11,-0.001,0.0,0.0,0.0
25/06/2023,00:40:11,0.001,0.0,0.0,0.0
25/06/2023,00:41:11,0.000,0.0,0.0,0.0
25/06/2023,00:42:11,0.001,0.0,0.0,0.0
25/06/2023,00:43:11,-0.001,0.0,0.0,0.0
25/06/2023,00:44:11,-0.000,0.0,0.0,0.0
25/06/2023,00:45:12,0.000,0.0,0.0,0.0
25/06/2023,00:46:11,0.000,0.0,0.0,0.0
25/06/2023,00:47:11,0.000,0.0,0.0,0.0
25/06/2023,00:48:11,0.000,0.0,0.0,0.0
25/06/2023,00:49:12,0.000,0.0,0.0,0.0
25/06/2023,00:50:11,0.000,0.0,0.0,0.0
25/06/2023,00:51:11,0.000,0.0,0.0,0.0
25/06/2023,00:52:11,0.000,0.0,0.0,0.0
25/06/2023,00:53:11,0.000,0.0,0.0,0.0
25/06/2023,00:54:11,0.000,0.0,0.0,0.0
25/06/2023,00:55:11,0.000,0.0,0.0,0.0
25/06/2023,00:56:11,0.000,0.0,0.0,0.0
25/06/2023,00:57:11,0.000,0.0,0.0,0.0
25/06/2023,00:58:11,-0.001,0.0,0.0,0.0
25/06/2023,00:59:12,0.000,0.0,0.0,0.0
25/06/2023,01:00:11,-0.001,0.0,0.0,0.0
25/06/2023,01:01:11,-0.001,0.0,0.0,0.0
25/06/2023,01:02:12,0.000,0.0,0.0,0.0
25/06/2023,01:03:11,0.000,0.0,0.0,0.0
25/06/2023,01:04:11,0.000,0.0,0.0,0.0
25/06/2023,01:05:11,0.000,0.0,0.0,0.0
25/06/2023,01:06:11,0.001,0.0,0.0,0.0
25/06/2023,01:07:11,-0.000,0.0,0.0,0.0
25/06/2023,01:08:11,0.000,0.0,0.0,0.0
25/06/2023,01:09:11,0.000,0.0,0.0,0.0
25/06/2023,01:10:11,-0.000,0.0,0.0,0.0
25/06/2023,01:11:12,-0.000,0.0,0.0,0.0
25/06/2023,01:12:11,0.000,0.0,0.0,0.0
25/06/2023,01:13:11,0.000,0.0,0.0,0.0
25/06/2023,01:14:12,0.000,0.0,0.0,0.0
25/06/2023,01:15:12,-0.001,0.0,0.0,0.0
25/06/2023,01:16:10,0.000,0.0,0.0,0.0
25/06/2023,01:17:34,0.000,0.0,0.0,0.0
25/06/2023,01:19:11,0.000,0.0,0.0,0.0
25/06/2023,01:20:12,0.000,0.0,0.0,0.0
25/06/2023,01:21:11,-0.000,0.0,0.0,0.0
25/06/2023,01:22:11,0.001,0.0,0.0,0.0
25/06/2023,01:23:12,0.000,0.0,0.0,0.0
25/06/2023,01:24:11,0.000,0.0,0.0,0.0
25/06/2023,01:25:12,-0.001,0.0,0.0,0.0
25/06/2023,01:26:10,0.000,0.0,0.0,0.0
25/06/2023,01:27:11,0.000,0.0,0.0,0.0
25/06/2023,01:28:12,0.000,0.0,0.0,0.0
25/06/2023,01:29:12,0.001,0.0,0.0,0.0
25/06/2023,01:30:11,-0.001,0.0,0.0,0.0
25/06/2023,01:31:12,0.000,0.0,0.0,0.0
25/06/2023,01:32:11,0.001,0.0,0.0,0.0
25/06/2023,01:33:11,0.001,0.0,0.0,0.0
25/06/2023,01:34:12,-0.001,0.0,0.0,0.0
25/06/2023,01:35:12,0.000,0.0,0.0,0.0
25/06/2023,01:36:11,-0.000,0.0,0.0,0.0
25/06/2023,01:37:11,0.000,0.0,0.0,0.0
25/06/2023,01:38:11,0.000,0.0,0.0,0.0
25/06/2023,01:39:11,0.001,0.0,0.0,0.0
25/06/2023,01:40:11,0.000,0.0,0.0,0.0
25/06/2023,01:41:11,0.000,0.0,0.0,0.0
25/06/2023,01:42:11,-0.000,0.0,0.0,0.0
25/06/2023,01:43:11,0.000,0.0,0.0,0.0
25/06/2023,01:44:11,-0.001,0.0,0.0,0.0
25/06/2023,01:45:11,0.000,0.0,0.0,0.0
25/06/2023,01:46:11,0.000,0.0,0.0,0.0
25/06/2023,01:47:11,0.001,0.0,0.0,0.0
25/06/2023,01:48:11,0.000,0.0,0.0,0.0
25/06/2023,01:49:12,0.000,0.0,0.0,0.0
25/06/2023,01:50:11,0.000,0.0,0.0,0.0
25/06/2023,01:51:11,0.001,0.0,0.0,0.0
25/06/2023,01:52:11,0.000,0.0,0.0,0.0
25/06/2023,01:53:11,0.000,0.0,0.0,0.0
25/06/2023,01:54:12,0.000,0.0,0.0,0.0
25/06/2023,01:55:11,0.000,0.0,0.0,0.0
25/06/2023,01:56:11,0.000,0.0,0.0,0.0
25/06/2023,01:57:11,0.000,0.0,0.0,0.0
25/06/2023,01:58:11,-0.001,0.0,0.0,0.0
25/06/2023,01:59:12,0.000,0.0,0.0,0.0
25/06/2023,02:00:11,0.000,0.0,0.0,0.0
25/06/2023,02:01:12,0.000,0.0,0.0,0.0
25/06/2023,02:02:11,0.001,0.0,0.0,0.0
25/06/2023,02:03:11,0.001,0.0,0.0,0.0
25/06/2023,02:04:12,0.001,0.0,0.0,0.0
25/06/2023,02:05:11,0.000,0.0,0.0,0.0
25/06/2023,02:06:11,0.001,0.0,0.0,0.0
25/06/2023,02:07:12,0.001,0.0,0.0,0.0
25/06/2023,02:08:15,0.001,0.0,0.0,0.0
25/06/2023,02:09:12,0.001,0.0,0.0,0.0
25/06/2023,02:10:11,0.001,0.0,0.0,0.0
25/06/2023,02:11:12,0.001,0.0,0.0,0.0
25/06/2023,02:12:11,0.001,0.0,0.0,0.0
25/06/2023,02:13:11,0.001,0.0,0.0,0.0
25/06/2023,02:14:12,0.001,0.0,0.0,0.0
25/06/2023,02:15:11,0.001,0.0,0.0,0.0
25/06/2023,02:16:12,0.000,0.0,0.0,0.0
25/06/2023,02:17:11,0.000,0.0,0.0,0.0
25/06/2023,02:18:12,0.001,0.0,0.0,0.0
25/06/2023,02:19:11,-0.001,0.0,0.0,0.0
25/06/2023,02:20:11,-0.000,0.0,0.0,0.0
25/06/2023,02:21:12,0.001,0.0,0.0,0.0
25/06/2023,02:22:11,0.000,0.0,0.0,0.0
25/06/2023,02:23:12,0.001,0.0,0.0,0.0
25/06/2023,02:24:11,0.000,0.0,0.0,0.0
25/06/2023,02:25:11,0.001,0.0,0.0,0.0
25/06/2023,02:26:11,0.001,0.0,0.0,0.0
25/06/2023,02:27:12,0.000,0.0,0.0,0.0
25/06/2023,02:28:11,0.001,0.0,0.0,0.0
25/06/2023,02:29:12,0.000,0.0,0.0,0.0
25/06/2023,02:30:11,0.001,0.0,0.0,0.0
25/06/2023,02:31:12,0.001,0.0,0.0,0.0
25/06/2023,02:32:11,0.001,0.0,0.0,0.0
25/06/2023,02:33:11,0.001,0.0,0.0,0.0
25/06/2023,02:34:11,0.001,0.0,0.0,0.0
25/06/2023,02:35:11,0.001,0.0,0.0,0.0
25/06/2023,02:36:12,0.001,0.0,0.0,0.0
25/06/2023,02:37:12,0.000,0.0,0.0,0.0
25/06/2023,02:38:11,0.001,0.0,0.0,0.0
25/06/2023,02:39:11,0.001,0.0,0.0,0.0
25/06/2023,02:40:11,0.001,0.0,0.0,0.0
25/06/2023,02:41:11,-0.000,0.0,0.0,0.0
25/06/2023,02:42:12,0.001,0.0,0.0,0.0
25/06/2023,02:43:12,0.001,0.0,0.0,0.0
25/06/2023,02:44:11,-0.000,0.0,0.0,0.0
25/06/2023,02:45:12,0.001,0.0,0.0,0.0
25/06/2023,02:46:12,0.001,0.0,0.0,0.0
25/06/2023,02:47:11,0.001,0.0,0.0,0.0
25/06/2023,02:48:12,0.001,0.0,0.0,0.0
25/06/2023,02:49:12,0.001,0.0,0.0,0.0
25/06/2023,02:50:11,0.001,0.0,0.0,0.0
25/06/2023,02:51:12,0.001,0.0,0.0,0.0
25/06/2023,02:52:11,0.001,0.0,0.0,0.0
25/06/2023,02:53:11,0.001,0.0,0.0,0.0
25/06/2023,02:54:12,0.001,0.0,0.0,0.0
25/06/2023,02:55:11,0.001,0.0,0.0,0.0
25/06/2023,02:56:12,0.001,0.0,0.0,0.0
25/06/2023,02:57:11,0.001,0.0,0.0,0.0
25/06/2023,02:58:11,0.001,0.0,0.0,0.0
25/06/2023,02:59:11,0.001,0.0,0.0,0.0
25/06/2023,03:00:11,0.001,0.0,0.0,0.0
25/06/2023,03:01:11,-0.001,0.0,0.0,0.0
25/06/2023,03:02:12,0.001,0.0,0.0,0.0
25/06/2023,03:03:11,0.001,0.0,0.0,0.0
25/06/2023,03:04:11,0.001,0.0,0.0,0.0
25/06/2023,03:05:12,0.001,0.0,0.0,0.0
25/06/2023,03:06:11,0.001,0.0,0.0,0.0
25/06/2023,03:07:11,0.001,0.0,0.0,0.0
25/06/2023,03:08:11,0.001,0.0,0.0,0.0
25/06/2023,03:09:12,0.000,0.0,0.0,0.0
25/06/2023,03:10:11,0.001,0.0,0.0,0.0
25/06/2023,03:11:12,0.001,0.0,0.0,0.0
25/06/2023,03:12:11,0.001,0.0,0.0,0.0
25/06/2023,03:13:12,0.001,0.0,0.0,0.0
25/06/2023,03:14:12,0.001,0.0,0.0,0.0
25/06/2023,03:15:11,0.001,0.0,0.0,0.0
25/06/2023,03:16:12,0.001,0.0,0.0,0.0
25/06/2023,03:17:12,0.001,0.0,0.0,0.0
25/06/2023,03:18:11,0.001,0.0,0.0,0.0
25/06/2023,03:19:12,0.001,0.0,0.0,0.0
25/06/2023,03:20:11,0.001,0.0,0.0,0.0
25/06/2023,03:21:12,0.001,0.0,0.0,0.0
25/06/2023,03:22:12,0.001,0.0,0.0,0.0
25/06/2023,03:23:11,0.001,0.0,0.0,0.0
25/06/2023,03:24:12,0.001,0.0,0.0,0.0
25/06/2023,03:25:12,0.001,0.0,0.0,0.0
25/06/2023,03:26:12,0.001,0.0,0.0,0.0
25/06/2023,03:27:11,0.002,0.0,0.0,0.0
25/06/2023,03:28:12,0.001,0.0,0.0,0.0
25/06/2023,03:29:11,0.001,0.0,0.0,0.0
25/06/2023,03:30:12,0.002,0.0,0.0,0.0
25/06/2023,03:31:11,0.002,0.0,0.0,0.0
25/06/2023,03:32:12,0.002,0.0,0.0,0.0
25/06/2023,03:33:11,0.002,0.0,0.0,0.0
25/06/2023,03:34:11,0.002,0.0,0.0,0.0
25/06/2023,03:35:11,0.002,0.0,0.0,0.0
25/06/2023,03:36:11,0.003,0.0,0.0,0.0
25/06/2023,03:37:12,0.002,0.0,0.0,0.0
25/06/2023,03:38:12,0.003,0.0,0.0,0.0
25/06/2023,03:39:11,0.002,0.0,0.0,0.0
25/06/2023,03:40:11,0.001,0.0,0.0,0.0
25/06/2023,03:41:11,0.002,0.0,0.0,0.0
25/06/2023,03:42:12,0.004,0.0,0.0,0.0
25/06/2023,03:43:12,0.003,0.0,0.0,0.0
25/06/2023,03:44:11,0.003,0.0,0.0,0.0
25/06/2023,03:45:12,0.003,0.0,0.0,0.0
25/06/2023,03:46:11,0.003,0.0,0.0,0.0
25/06/2023,03:47:12,0.003,0.0,0.0,0.0
25/06/2023,03:48:12,0.003,0.0,0.0,0.0
25/06/2023,03:49:11,0.004,0.0,0.0,0.0
25/06/2023,03:50:12,0.004,0.0,0.0,0.0
25/06/2023,03:51:11,0.004,0.0,0.0,0.0
25/06/2023,03:52:12,0.004,0.0,0.0,0.0
25/06/2023,03:53:12,0.004,0.0,0.0,0.0
25/06/2023,03:54:11,0.004,0.0,0.0,0.0
25/06/2023,03:55:11,0.005,0.0,0.0,0.0
25/06/2023,03:56:11,0.005,0.0,0.0,0.0
25/06/2023,03:57:12,0.005,0.0,0.0,0.0
25/06/2023,03:58:12,0.005,0.0,0.0,0.0
25/06/2023,03:59:11,0.005,0.0,0.0,0.0
25/06/2023,04:00:12,0.006,0.0,0.0,0.0
25/06/2023,04:01:11,0.006,0.0,0.0,0.0
25/06/2023,04:02:12,0.007,0.0,0.0,0.0
25/06/2023,04:03:12,0.006,0.0,0.0,0.0
25/06/2023,04:04:11,0.008,0.0,0.0,0.0
25/06/2023,04:05:12,0.008,0.0,0.0,0.0
25/06/2023,04:06:12,0.007,0.0,0.001,0.001
25/06/2023,04:07:11,0.008,0.0,0.001,0.0
25/06/2023,04:08:11,0.008,0.0,0.001,0.0
25/06/2023,04:09:11,0.008,0.0,0.001,0.0
25/06/2023,04:10:12,0.008,0.0,0.001,0.0
25/06/2023,04:11:12,0.009,0.0,0.001,0.0
25/06/2023,04:12:11,0.009,0.0,0.001,0.0
25/06/2023,04:13:12,0.010,0.0,0.001,0.0
25/06/2023,04:14:12,0.010,0.0,0.002,0.001
25/06/2023,04:15:11,0.010,0.0,0.002,0.0
25/06/2023,04:16:12,0.010,0.0,0.002,0.0
25/06/2023,04:17:11,0.011,0.0,0.002,0.0
25/06/2023,04:18:12,0.011,0.0,0.002,0.0
25/06/2023,04:19:11,0.011,0.0,0.003,0.001
25/06/2023,04:20:12,0.012,0.0,0.003,0.0
25/06/2023,04:21:11,0.013,0.0,0.003,0.0
25/06/2023,04:22:12,0.013,0.0,0.003,0.0
25/06/2023,04:23:12,0.013,0.0,0.003,0.0
25/06/2023,04:24:12,0.014,0.0,0.004,0.001
25/06/2023,04:25:11,0.014,0.0,0.004,0.0
25/06/2023,04:26:12,0.014,0.0,0.004,0.0
25/06/2023,04:27:11,0.015,0.0,0.004,0.0
25/06/2023,04:28:12,0.016,0.0,0.005,0.001
25/06/2023,04:29:11,0.016,0.0,0.005,0.0
25/06/2023,04:30:12,0.017,0.0,0.005,0.0
25/06/2023,04:31:12,0.018,0.0,0.005,0.0
25/06/2023,04:32:11,0.018,0.0,0.006,0.001
25/06/2023,04:33:11,0.018,0.0,0.006,0.0
25/06/2023,04:34:12,0.019,0.0,0.006,0.0
25/06/2023,04:35:12,0.019,0.0,0.007,0.001
25/06/2023,04:36:11,0.019,0.0,0.007,0.0
25/06/2023,04:37:12,0.021,0.0,0.007,0.0
25/06/2023,04:38:11,0.022,0.0,0.008,0.001
25/06/2023,04:39:12,0.022,0.0,0.008,0.0
25/06/2023,04:40:11,0.023,0.0,0.008,0.0
25/06/2023,04:41:12,0.024,0.0,0.009,0.001
25/06/2023,04:42:11,0.024,0.0,0.009,0.0
25/06/2023,04:43:12,0.025,0.0,0.01,0.001
25/06/2023,04:44:11,0.026,0.0,0.01,0.0
25/06/2023,04:45:12,0.026,0.0,0.01,0.0
25/06/2023,04:46:12,0.026,0.0,0.011,0.001
25/06/2023,04:47:12,0.028,0.0,0.011,0.0
25/06/2023,04:48:11,0.028,0.0,0.012,0.001
25/06/2023,04:49:12,0.030,0.0,0.012,0.0
25/06/2023,04:50:11,0.030,0.0,0.013,0.001
25/06/2023,04:51:12,0.031,0.0,0.013,0.0
25/06/2023,04:52:11,0.033,0.0,0.014,0.001
25/06/2023,04:53:11,0.033,0.0,0.014,0.0
25/06/2023,04:54:11,0.035,0.0,0.015,0.001
25/06/2023,04:55:12,0.035,0.0,0.016,0.001
25/06/2023,04:56:12,0.037,0.0,0.016,0.0
25/06/2023,04:57:11,0.038,0.0,0.017,0.001
25/06/2023,04:58:12,0.037,0.0,0.017,0.0
25/06/2023,04:59:11,0.039,0.0,0.018,0.001
25/06/2023,05:00:12,0.040,0.0,0.019,0.001
25/06/2023,05:01:11,0.041,0.0,0.019,0.0
25/06/2023,05:02:12,0.043,0.0,0.02,0.001
25/06/2023,05:03:11,0.043,0.0,0.021,0.001
25/06/2023,05:04:12,0.044,0.0,0.021,0.0
25/06/2023,05:05:11,0.046,0.0,0.022,0.001
25/06/2023,05:06:12,0.047,0.0,0.023,0.001
25/06/2023,05:07:11,0.048,0.0,0.024,0.001
25/06/2023,05:08:11,0.050,0.0,0.025,0.001
25/06/2023,05:09:12,0.049,0.0,0.025,0.0
25/06/2023,05:10:12,0.052,0.0,0.026,0.001
25/06/2023,05:11:12,0.053,0.0,0.027,0.001
25/06/2023,05:12:12,0.054,0.0,0.028,0.001
25/06/2023,05:13:12,0.055,0.0,0.029,0.001
25/06/2023,05:14:11,0.057,0.0,0.03,0.001
25/06/2023,05:15:12,0.057,0.0,0.031,0.001
25/06/2023,05:16:12,0.060,0.0,0.032,0.001
25/06/2023,05:17:11,0.061,0.0,0.033,0.001
25/06/2023,05:18:12,0.062,0.0,0.034,0.001
25/06/2023,05:19:11,0.064,0.0,0.035,0.001
25/06/2023,05:20:12,0.065,0.0,0.036,0.001
25/06/2023,05:21:12,0.067,0.0,0.037,0.001
25/06/2023,05:22:12,0.069,0.0,0.038,0.001
25/06/2023,05:23:11,0.069,0.0,0.039,0.001
25/06/2023,05:24:12,0.072,0.0,0.041,0.002
25/06/2023,05:25:11,0.075,0.0,0.042,0.001
25/06/2023,05:26:12,0.076,0.0,0.043,0.001
25/06/2023,05:27:11,0.077,0.0,0.044,0.001
25/06/2023,05:28:11,0.079,0.0,0.046,0.002
25/06/2023,05:29:12,0.081,0.0,0.047,0.001
25/06/2023,05:30:11,0.082,0.0,0.048,0.001
25/06/2023,05:31:12,0.085,0.0,0.05,0.002
25/06/2023,05:32:12,0.086,0.0,0.051,0.001
25/06/2023,05:33:11,0.088,0.0,0.053,0.002
25/06/2023,05:34:12,0.089,0.0,0.054,0.001
25/06/2023,05:35:11,0.093,0.0,0.056,0.002
25/06/2023,05:36:12,0.094,0.0,0.057,0.001
25/06/2023,05:37:11,0.096,0.0,0.059,0.002
25/06/2023,05:38:12,0.098,0.0,0.06,0.001
25/06/2023,05:39:12,0.100,0.0,0.062,0.002
25/06/2023,05:40:12,0.103,0.0,0.064,0.002
25/06/2023,05:41:12,0.105,0.0,0.065,0.001
25/06/2023,05:42:11,0.107,0.0,0.067,0.002
25/06/2023,05:43:12,0.110,0.0,0.069,0.002
25/06/2023,05:44:12,0.113,0.0,0.071,0.002
25/06/2023,05:45:12,0.115,0.0,0.073,0.002
25/06/2023,05:46:12,0.117,0.0,0.075,0.002
25/06/2023,05:47:12,0.119,0.0,0.077,0.002
25/06/2023,05:48:12,0.122,0.0,0.079,0.002
25/06/2023,05:49:11,0.124,0.0,0.081,0.002
25/06/2023,05:50:12,0.127,0.0,0.083,0.002
25/06/2023,05:51:12,0.129,0.0,0.085,0.002
25/06/2023,05:52:11,0.132,0.0,0.087,0.002
25/06/2023,05:53:13,0.134,0.0,0.089,0.002
25/06/2023,05:54:12,0.137,0.0,0.092,0.003
25/06/2023,05:55:11,0.140,0.0,0.094,0.002
25/06/2023,05:56:12,0.144,0.0,0.096,0.002
25/06/2023,05:57:11,0.146,0.0,0.099,0.003
25/06/2023,05:58:12,0.149,0.0,0.101,0.002
25/06/2023,05:59:11,0.152,0.0,0.104,0.003
25/06/2023,06:00:12,0.154,0.0,0.106,0.002
25/06/2023,06:01:12,0.159,0.0,0.109,0.003
25/06/2023,06:02:11,0.161,0.0,0.111,0.002
25/06/2023,06:03:12,0.165,0.0,0.114,0.003
25/06/2023,06:04:12,0.168,0.0,0.117,0.003
25/06/2023,06:05:11,0.171,0.0,0.12,0.003
25/06/2023,06:06:12,0.174,0.0,0.123,0.003
25/06/2023,06:07:11,0.178,0.0,0.126,0.003
25/06/2023,06:08:12,0.181,0.0,0.129,0.003
25/06/2023,06:09:12,0.184,0.0,0.132,0.003
25/06/2023,06:10:12,0.188,0.0,0.135,0.003
25/06/2023,06:11:11,0.191,0.0,0.138,0.003
25/06/2023,06:12:12,0.195,0.0,0.141,0.003
25/06/2023,06:13:12,0.199,0.0,0.144,0.003
25/06/2023,06:14:11,0.203,0.0,0.148,0.004
25/06/2023,06:15:12,0.207,0.0,0.151,0.003
25/06/2023,06:16:11,0.210,0.0,0.155,0.004
25/06/2023,06:17:12,0.214,0.0,0.158,0.003
25/06/2023,06:18:11,0.218,0.0,0.162,0.004
25/06/2023,06:19:12,0.221,1.0,0.165,0.003
25/06/2023,06:20:11,0.226,1.0,0.169,0.004
25/06/2023,06:21:12,0.230,1.0,0.173,0.004
25/06/2023,06:22:12,0.234,1.0,0.177,0.004
25/06/2023,06:23:12,0.238,1.0,0.181,0.004
25/06/2023,06:24:12,0.241,1.0,0.185,0.004
25/06/2023,06:25:12,0.245,1.0,0.189,0.004
25/06/2023,06:26:11,0.251,1.0,0.193,0.004
25/06/2023,06:27:12,0.255,1.0,0.197,0.004
25/06/2023,06:28:12,0.258,1.0,0.201,0.004
25/06/2023,06:29:12,0.263,1.0,0.206,0.005
25/06/2023,06:30:12,0.267,1.0,0.21,0.004
25/06/2023,06:31:11,0.271,1.0,0.215,0.005
25/06/2023,06:32:11,0.277,1.0,0.219,0.004
25/06/2023,06:33:12,0.282,1.0,0.224,0.005
25/06/2023,06:34:12,0.286,1.0,0.228,0.004
25/06/2023,06:35:11,0.290,1.0,0.233,0.005
25/06/2023,06:36:12,0.294,1.0,0.238,0.005
25/06/2023,06:37:12,0.299,1.0,0.243,0.005
25/06/2023,06:38:12,0.303,1.0,0.248,0.005
25/06/2023,06:39:11,0.308,1.0,0.253,0.005
25/06/2023,06:40:12,0.314,1.0,0.258,0.005
25/06/2023,06:41:12,0.318,1.0,0.264,0.006
25/06/2023,06:42:11,0.323,1.0,0.269,0.005
25/06/2023,06:43:12,0.326,1.0,0.274,0.005
25/06/2023,06:44:12,0.331,1.0,0.28,0.006
25/06/2023,06:45:12,0.338,1.0,0.285,0.005
25/06/2023,06:46:12,0.341,1.0,0.291,0.006
25/06/2023,06:47:12,0.348,1.0,0.297,0.006
25/06/2023,06:48:12,0.353,1.0,0.303,0.006
25/06/2023,06:49:11,0.356,1.0,0.309,0.006
25/06/2023,06:50:11,0.364,1.0,0.315,0.006
25/06/2023,06:51:12,0.368,1.0,0.321,0.006
25/06/2023,06:52:11,0.374,1.0,0.327,0.006
25/06/2023,06:53:12,0.379,1.0,0.333,0.006
25/06/2023,06:54:11,0.385,1.0,0.34,0.007
25/06/2023,06:55:12,0.390,1.0,0.346,0.006
25/06/2023,06:56:11,0.398,1.0,0.353,0.007
25/06/2023,06:57:12,0.403,1.0,0.359,0.006
25/06/2023,06:58:12,0.409,1.0,0.366,0.007
25/06/2023,06:59:12,0.413,1.0,0.373,0.007
25/06/2023,07:00:12,0.420,1.0,0.38,0.007
25/06/2023,07:01:11,0.426,1.0,0.387,0.007
25/06/2023,07:02:12,0.432,1.0,0.394,0.007
25/06/2023,07:03:11,0.438,1.0,0.401,0.007
25/06/2023,07:04:12,0.444,1.0,0.409,0.008
25/06/2023,07:05:12,0.450,1.0,0.416,0.007
25/06/2023,07:06:12,0.456,1.0,0.424,0.008
25/06/2023,07:07:12,0.463,1.0,0.431,0.007
25/06/2023,07:08:11,0.467,1.0,0.439,0.008
25/06/2023,07:09:12,0.473,1.0,0.447,0.008
25/06/2023,07:10:12,0.479,1.0,0.455,0.008
25/06/2023,07:11:11,0.487,1.0,0.463,0.008
25/06/2023,07:12:12,0.493,1.0,0.471,0.008
25/06/2023,07:13:12,0.500,1.0,0.479,0.008
25/06/2023,07:14:12,0.508,1.0,0.488,0.009
25/06/2023,07:15:12,0.515,1.0,0.496,0.008
25/06/2023,07:16:12,0.520,1.0,0.505,0.009
25/06/2023,07:17:12,0.529,1.0,0.513,0.008
25/06/2023,07:18:12,0.534,1.0,0.522,0.009
25/06/2023,07:19:12,0.542,1.0,0.531,0.009
25/06/2023,07:20:12,0.547,1.0,0.54,0.009
25/06/2023,07:21:11,0.556,1.0,0.55,0.01
25/06/2023,07:22:12,0.563,1.0,0.559,0.009
25/06/2023,07:23:11,0.569,1.0,0.568,0.009
25/06/2023,07:24:12,0.578,1.0,0.578,0.01
25/06/2023,07:25:12,0.585,1.0,0.588,0.01
25/06/2023,07:26:11,0.592,1.0,0.597,0.009
25/06/2023,07:27:11,0.600,1.0,0.607,0.01
25/06/2023,07:28:12,0.608,1.0,0.617,0.01
25/06/2023,07:29:12,0.616,1.0,0.628,0.011
25/06/2023,07:30:12,0.622,1.0,0.638,0.01
25/06/2023,07:31:12,0.622,1.0,0.648,0.01
25/06/2023,07:32:12,0.632,1.0,0.659,0.011
25/06/2023,07:33:12,0.645,1.0,0.669,0.01
25/06/2023,07:34:11,0.654,2.0,0.68,0.011
25/06/2023,07:35:12,0.659,2.0,0.691,0.011
25/06/2023,07:36:12,0.668,2.0,0.702,0.011
25/06/2023,07:37:11,0.678,2.0,0.714,0.012
25/06/2023,07:38:12,0.688,2.0,0.725,0.011
25/06/2023,07:39:12,0.695,2.0,0.736,0.011
25/06/2023,07:40:11,0.702,2.0,0.748,0.012
25/06/2023,07:41:12,0.708,2.0,0.76,0.012
25/06/2023,07:42:12,0.716,2.0,0.772,0.012
25/06/2023,07:43:12,0.723,2.0,0.784,0.012
25/06/2023,07:44:12,0.731,2.0,0.796,0.012
25/06/2023,07:45:12,0.743,2.0,0.808,0.012
25/06/2023,07:46:12,0.752,2.0,0.821,0.013
25/06/2023,07:47:12,0.759,2.0,0.833,0.012
25/06/2023,07:48:12,0.766,2.0,0.846,0.013
25/06/2023,07:49:12,0.774,2.0,0.859,0.013
25/06/2023,07:50:12,0.781,2.0,0.872,0.013
25/06/2023,07:51:11,0.788,2.0,0.885,0.013
25/06/2023,07:52:12,0.794,2.0,0.898,0.013
25/06/2023,07:53:12,0.800,2.0,0.911,0.013
25/06/2023,07:54:12,0.811,2.0,0.925,0.014
25/06/2023,07:55:12,0.822,2.0,0.938,0.013
25/06/2023,07:56:12,0.829,2.0,0.952,0.014
25/06/2023,07:57:12,0.832,2.0,0.966,0.014
25/06/2023,07:58:12,0.808,2.0,0.98,0.014
25/06/2023,07:59:12,0.828,2.0,0.993,0.013
25/06/2023,08:00:12,0.818,2.0,1.007,0.014
25/06/2023,08:01:12,0.823,2.0,1.021,0.014
25/06/2023,08:02:12,0.864,2.0,1.035,0.014
25/06/2023,08:03:11,0.892,2.0,1.05,0.015
25/06/2023,08:04:12,0.901,2.0,1.064,0.014
25/06/2023,08:05:12,0.911,2.0,1.08,0.016
25/06/2023,08:06:12,0.921,2.0,1.095,0.015
25/06/2023,08:07:12,0.930,2.0,1.11,0.015
25/06/2023,08:08:12,0.938,2.0,1.126,0.016
25/06/2023,08:09:12,0.947,2.0,1.142,0.016
25/06/2023,08:10:12,0.954,2.0,1.157,0.015
25/06/2023,08:11:12,0.965,2.0,1.173,0.016
25/06/2023,08:12:12,0.976,2.0,1.19,0.017
25/06/2023,08:13:12,0.986,2.0,1.206,0.016
25/06/2023,08:14:12,0.994,2.0,1.222,0.016
25/06/2023,08:15:13,1.003,2.0,1.239,0.017
25/06/2023,08:16:12,1.011,2.0,1.256,0.017
25/06/2023,08:17:12,1.020,2.0,1.273,0.017
25/06/2023,08:18:12,1.029,2.0,1.29,0.017
25/06/2023,08:19:12,1.036,2.0,1.307,0.017
25/06/2023,08:20:12,1.047,2.0,1.324,0.017
25/06/2023,08:21:12,1.051,2.0,1.342,0.018
25/06/2023,08:22:12,1.063,2.0,1.36,0.018
25/06/2023,08:23:12,1.072,2.0,1.377,0.017
25/06/2023,08:24:12,1.083,2.0,1.395,0.018
25/06/2023,08:25:12,1.089,3.0,1.413,0.018
25/06/2023,08:26:12,1.101,3.0,1.432,0.019
25/06/2023,08:27:12,1.113,3.0,1.45,0.018
25/06/2023,08:28:12,1.123,3.0,1.469,0.019
25/06/2023,08:29:12,1.129,3.0,1.488,0.019
25/06/2023,08:30:12,1.141,3.0,1.507,0.019
25/06/2023,08:31:11,1.149,3.0,1.526,0.019
25/06/2023,08:32:12,1.159,3.0,1.545,0.019
25/06/2023,08:33:12,1.169,3.0,1.564,0.019
25/06/2023,08:34:12,1.176,3.0,1.584,0.02
25/06/2023,08:35:12,1.187,3.0,1.604,0.02
25/06/2023,08:36:12,1.194,3.0,1.623,0.019
25/06/2023,08:37:12,1.203,3.0,1.643,0.02
25/06/2023,08:38:12,1.209,3.0,1.664,0.021
25/06/2023,08:39:12,1.218,3.0,1.684,0.02
25/06/2023,08:40:11,1.227,3.0,1.704,0.02
25/06/2023,08:41:12,1.237,3.0,1.725,0.021
25/06/2023,08:42:11,1.245,3.0,1.745,0.02
25/06/2023,08:43:12,1.254,3.0,1.766,0.021
25/06/2023,08:44:12,1.267,3.0,1.787,0.021
25/06/2023,08:45:12,1.279,3.0,1.808,0.021
25/06/2023,08:46:12,1.289,3.0,1.83,0.022
25/06/2023,08:47:11,1.295,3.0,1.851,0.021
25/06/2023,08:48:12,1.306,3.0,1.873,0.022
25/06/2023,08:49:14,1.316,3.0,1.896,0.023
25/06/2023,08:50:12,1.328,3.0,1.917,0.021
25/06/2023,08:51:12,1.340,3.0,1.939,0.022
25/06/2023,08:52:12,1.354,3.0,1.962,0.023
25/06/2023,08:53:12,1.369,3.0,1.984,0.022
25/06/2023,08:54:12,1.387,3.0,2.007,0.023
25/06/2023,08:55:12,1.411,3.0,2.03,0.023
25/06/2023,08:56:12,1.429,3.0,2.054,0.024
25/06/2023,08:57:12,1.452,3.0,2.078,0.024
25/06/2023,08:58:11,1.479,3.0,2.103,0.025
25/06/2023,08:59:11,1.503,3.0,2.127,0.024
25/06/2023,09:00:12,1.531,4.0,2.153,0.026
25/06/2023,09:01:12,1.440,3.0,2.177,0.024
25/06/2023,09:02:12,1.453,3.0,2.201,0.024
25/06/2023,09:03:11,1.506,3.0,2.224,0.023
25/06/2023,09:04:12,1.505,3.0,2.25,0.026
25/06/2023,09:05:12,1.495,3.0,2.275,0.025
25/06/2023,09:06:12,1.369,3.0,2.299,0.024
25/06/2023,09:07:12,1.141,3.0,2.319,0.02
25/06/2023,09:08:12,1.206,3.0,2.339,0.02
25/06/2023,09:09:12,1.147,3.0,2.36,0.021
25/06/2023,09:10:12,1.148,3.0,2.379,0.019
25/06/2023,09:11:12,1.128,3.0,2.398,0.019
25/06/2023,09:12:12,1.139,3.0,2.417,0.019
25/06/2023,09:13:12,1.136,3.0,2.436,0.019
25/06/2023,09:14:12,1.230,3.0,2.456,0.02
25/06/2023,09:15:12,1.293,3.0,2.477,0.021
25/06/2023,09:16:12,1.548,4.0,2.502,0.025
25/06/2023,09:17:12,1.443,3.0,2.527,0.025
25/06/2023,09:18:12,1.265,3.0,2.549,0.022
25/06/2023,09:19:12,1.406,3.0,2.57,0.021
25/06/2023,09:20:12,1.540,4.0,2.594,0.024
25/06/2023,09:21:14,1.625,4.0,2.621,0.027
25/06/2023,09:22:11,1.402,3.0,2.644,0.023
25/06/2023,09:23:12,1.727,4.0,2.669,0.025
25/06/2023,09:24:12,1.819,4.0,2.698,0.029
25/06/2023,09:25:12,1.825,4.0,2.728,0.03
25/06/2023,09:26:12,1.830,4.0,2.759,0.031
25/06/2023,09:27:12,1.807,4.0,2.788,0.029
25/06/2023,09:28:12,1.872,4.0,2.819,0.031
25/06/2023,09:29:12,1.885,4.0,2.85,0.031
25/06/2023,09:30:12,1.870,4.0,2.881,0.031
25/06/2023,09:31:12,1.897,4.0,2.913,0.032
25/06/2023,09:32:12,1.838,4.0,2.944,0.031
25/06/2023,09:33:12,1.565,4.0,2.973,0.029
25/06/2023,09:34:12,1.722,4.0,3.002,0.029
25/06/2023,09:35:12,1.737,4.0,3.031,0.029
25/06/2023,09:36:12,1.844,4.0,3.061,0.03
25/06/2023,09:37:12,1.882,4.0,3.091,0.03
25/06/2023,09:38:12,1.877,4.0,3.123,0.032
25/06/2023,09:39:12,1.889,4.0,3.154,0.031
25/06/2023,09:40:12,1.895,4.0,3.186,0.032
25/06/2023,09:41:12,1.893,4.0,3.217,0.031
25/06/2023,09:42:12,1.885,4.0,3.248,0.031
25/06/2023,09:43:12,1.703,4.0,3.279,0.031
25/06/2023,09:44:12,1.717,4.0,3.308,0.029
25/06/2023,09:45:12,1.756,4.0,3.337,0.029
25/06/2023,09:46:12,1.863,4.0,3.368,0.031
25/06/2023,09:47:12,1.865,4.0,3.399,0.031
25/06/2023,09:48:12,1.874,4.0,3.43,0.031
25/06/2023,09:49:12,1.874,4.0,3.461,0.031
25/06/2023,09:50:12,1.788,4.0,3.49,0.029
25/06/2023,09:51:12,1.654,4.0,3.518,0.028
25/06/2023,09:52:12,1.766,4.0,3.548,0.03
25/06/2023,09:53:12,1.799,4.0,3.577,0.029